Time,TemperatureF,DewpointF,PressureIn,WindDirection,WindDirectionDegrees,WindSpeedMPH,WindSpeedGustMPH,Humidity,HourlyPrecipIn,Conditions,Clouds,dailyrainin,SoftwareType,DateUTC
2013-08-04 00:00:00,61.7,59.4,29.96,NNW,338,0.0,1.0,92,0.00,,---,0.00,VWS V14.01,2013-08-04 07:00:00,
2013-08-04 00:04:00,61.6,59.0,29.96,NNW,327,0.0,0.0,92,0.00,,,0.00,weatherlink.com 1.10,2013-08-04 07:04:00,
2013-08-04 00:15:00,61.6,59.3,29.96,NNW,338,0.0,0.0,92,0.00,,---,0.00,VWS V14.01,2013-08-04 07:15:00,
2013-08-04 00:19:00,61.7,60.0,29.95,NNW,327,0.0,1.0,93,0.00,,,0.00,weatherlink.com 1.10,2013-08-04 07:19:00,
2013-08-04 00:30:00,62.2,59.8,29.95,NNW,338,0.0,2.0,92,0.00,,---,0.00,VWS V14.01,2013-08-04 07:30:00,
2013-08-04 00:34:00,62.5,60.0,29.95,NNW,327,0.0,2.0,92,0.00,,,0.00,weatherlink.com 1.10,2013-08-04 07:34:00,
2013-08-04 00:45:00,62.8,60.1,29.95,NNW,338,0.0,1.0,91,0.00,,---,0.00,VWS V14.01,2013-08-04 07:45:00,
2013-08-04 00:49:00,62.9,60.0,29.95,NNW,327,0.0,2.0,91,0.00,,,0.00,weatherlink.com 1.10,2013-08-04 07:49:00,
2013-08-04 01:00:00,63.1,60.1,29.95,NNW,338,0.0,2.0,90,0.00,,---,0.00,VWS V14.01,2013-08-04 08:00:00,
2013-08-04 01:04:00,63.3,60.0,29.95,NNW,327,0.0,1.0,90,0.00,,,0.00,weatherlink.com 1.10,2013-08-04 08:04:00,
2013-08-04 01:15:00,63.5,60.2,29.95,NNW,338,0.0,2.0,89,0.00,,---,0.00,VWS V14.01,2013-08-04 08:15:00,
2013-08-04 01:19:00,63.6,60.0,29.95,NNW,327,0.0,1.0,89,0.00,,,0.00,weatherlink.com 1.10,2013-08-04 08:19:00,
2013-08-04 01:30:00,63.7,60.4,29.95,NNW,338,0.0,1.0,89,0.00,,---,0.00,VWS V14.01,2013-08-04 08:30:00,
2013-08-04 01:34:00,63.8,61.0,29.95,NNW,327,0.0,1.0,89,0.00,,,0.00,weatherlink.com 1.10,2013-08-04 08:34:00,
2013-08-04 01:45:00,63.9,60.6,29.95,NNW,338,0.0,1.0,89,0.00,,---,0.00,VWS V14.01,2013-08-04 08:45:00,
2013-08-04 01:49:00,63.9,61.0,29.95,NNW,327,0.0,0.0,89,0.00,,,0.00,weatherlink.com 1.10,2013-08-04 08:49:00,
2013-08-04 02:04:00,64.0,61.0,29.95,NNW,327,0.0,0.0,89,0.00,,,0.00,weatherlink.com 1.10,2013-08-04 09:04:00,
2013-08-04 02:15:00,64.0,60.7,29.95,NNW,338,0.0,1.0,89,0.00,,---,0.00,VWS V14.01,2013-08-04 09:15:00,
2013-08-04 02:19:00,64.0,61.0,29.95,NNW,327,0.0,1.0,89,0.00,,,0.00,weatherlink.com 1.10,2013-08-04 09:19:00,
2013-08-04 02:30:00,64.0,60.7,29.95,NNW,338,0.0,1.0,89,0.00,,---,0.00,VWS V14.01,2013-08-04 09:30:00,
2013-08-04 02:34:00,64.0,60.0,29.95,NNW,327,0.0,0.0,88,0.00,,,0.00,weatherlink.com 1.10,2013-08-04 09:34:00,
2013-08-04 02:45:00,64.0,60.4,29.94,NNW,338,0.0,0.0,88,0.00,,---,0.00,VWS V14.01,2013-08-04 09:45:00,
2013-08-04 02:49:00,64.0,61.0,29.95,NNW,327,0.0,0.0,89,0.00,,,0.00,weatherlink.com 1.10,2013-08-04 09:49:00,
2013-08-04 03:00:00,64.0,60.7,29.94,NNW,338,0.0,1.0,89,0.00,,---,0.00,VWS V14.01,2013-08-04 10:00:00,
2013-08-04 03:04:00,64.0,61.0,29.94,NNW,327,0.0,1.0,89,0.00,,,0.00,weatherlink.com 1.10,2013-08-04 10:04:00,
2013-08-04 03:15:00,64.0,60.4,29.94,NNW,338,0.0,1.0,88,0.00,,---,0.00,VWS V14.01,2013-08-04 10:15:00,
2013-08-04 03:19:00,64.0,61.0,29.94,NNW,327,0.0,1.0,89,0.00,,,0.00,weatherlink.com 1.10,2013-08-04 10:19:00,
2013-08-04 03:30:00,64.1,60.5,29.94,NNW,338,0.0,1.0,88,0.00,,---,0.00,VWS V14.01,2013-08-04 10:30:00,
2013-08-04 03:34:00,64.1,61.0,29.94,NNW,327,0.0,1.0,89,0.00,,,0.00,weatherlink.com 1.10,2013-08-04 10:34:00,
2013-08-04 03:45:00,64.1,60.5,29.94,NNW,338,0.0,2.0,88,0.00,,---,0.00,VWS V14.01,2013-08-04 10:45:00,
2013-08-04 03:49:00,64.1,61.0,29.94,NNW,327,0.0,0.0,88,0.00,,,0.00,weatherlink.com 1.10,2013-08-04 10:49:00,
2013-08-04 04:00:00,64.1,60.5,29.94,NNW,338,0.0,2.0,88,0.00,,---,0.00,VWS V14.01,2013-08-04 11:00:00,
2013-08-04 04:04:00,64.1,61.0,29.94,NNW,327,0.0,1.0,88,0.00,,,0.00,weatherlink.com 1.10,2013-08-04 11:04:00,
2013-08-04 04:15:00,64.1,60.5,29.94,NNW,338,0.0,2.0,88,0.00,,---,0.00,VWS V14.01,2013-08-04 11:15:00,
2013-08-04 04:19:00,64.0,60.0,29.93,NNW,333,0.0,1.0,88,0.00,,,0.00,weatherlink.com 1.10,2013-08-04 11:19:00,
2013-08-04 04:30:00,64.0,60.4,29.94,NNW,338,0.0,2.0,88,0.00,,---,0.00,VWS V14.01,2013-08-04 11:30:00,
2013-08-04 04:34:00,64.0,60.0,29.94,NNW,333,0.0,1.0,88,0.00,,,0.00,weatherlink.com 1.10,2013-08-04 11:34:00,
2013-08-04 04:45:00,64.0,60.4,29.94,NNW,338,0.0,2.0,88,0.00,,---,0.00,VWS V14.01,2013-08-04 11:45:00,
2013-08-04 04:49:00,64.1,61.0,29.94,NNW,333,2.0,2.0,89,0.00,,,0.00,weatherlink.com 1.10,2013-08-04 11:49:00,
2013-08-04 05:00:00,64.0,60.4,29.94,NNW,338,0.0,3.0,88,0.00,,---,0.00,VWS V14.01,2013-08-04 12:00:00,
2013-08-04 05:04:00,64.0,60.0,29.94,NNW,333,1.0,4.0,88,0.00,,,0.00,weatherlink.com 1.10,2013-08-04 12:04:00,
2013-08-04 05:15:00,64.0,60.7,29.94,NNW,338,0.0,4.0,89,0.00,,---,0.00,VWS V14.01,2013-08-04 12:15:00,
2013-08-04 05:19:00,64.0,61.0,29.95,North,355,0.0,2.0,89,0.00,,,0.00,weatherlink.com 1.10,2013-08-04 12:19:00,
2013-08-04 05:30:00,63.9,60.6,29.95,NNW,338,0.0,2.0,89,0.00,,---,0.00,VWS V14.01,2013-08-04 12:30:00,
2013-08-04 05:34:00,63.9,61.0,29.95,NNW,339,0.0,3.0,89,0.00,,,0.00,weatherlink.com 1.10,2013-08-04 12:34:00,
2013-08-04 05:45:00,63.8,60.5,29.95,NNW,338,0.0,3.0,89,0.00,,---,0.00,VWS V14.01,2013-08-04 12:45:00,
2013-08-04 05:49:00,63.9,61.0,29.95,NNW,339,0.0,1.0,89,0.00,,,0.00,weatherlink.com 1.10,2013-08-04 12:49:00,
2013-08-04 06:00:00,63.9,60.6,29.95,NNW,338,0.0,1.0,89,0.00,,---,0.00,VWS V14.01,2013-08-04 13:00:00,
2013-08-04 06:04:00,63.9,61.0,29.96,NNW,340,0.0,1.0,89,0.00,,,0.00,weatherlink.com 1.10,2013-08-04 13:04:00,
2013-08-04 06:15:00,63.9,60.6,29.96,NNW,338,0.0,1.0,89,0.00,,---,0.00,VWS V14.01,2013-08-04 13:15:00,
2013-08-04 06:19:00,63.9,61.0,29.96,NNW,340,0.0,1.0,89,0.00,,,0.00,weatherlink.com 1.10,2013-08-04 13:19:00,
2013-08-04 06:30:00,64.0,60.7,29.96,NNW,338,0.0,2.0,89,0.00,,---,0.00,VWS V14.01,2013-08-04 13:30:00,
2013-08-04 06:34:00,64.1,61.0,29.96,NNW,339,0.0,2.0,89,0.00,,,0.00,weatherlink.com 1.10,2013-08-04 13:34:00,
2013-08-04 06:45:00,64.1,60.5,29.96,NNW,338,0.0,2.0,88,0.00,,---,0.00,VWS V14.01,2013-08-04 13:45:00,
2013-08-04 06:49:00,64.1,61.0,29.97,NNW,339,0.0,1.0,88,0.00,,,0.00,weatherlink.com 1.10,2013-08-04 13:49:00,
2013-08-04 07:00:00,64.2,60.9,29.97,West,270,1.0,5.0,89,0.00,,---,0.00,VWS V14.01,2013-08-04 14:00:00,
2013-08-04 07:04:00,64.2,61.0,29.97,West,267,0.0,4.0,89,0.00,,,0.00,weatherlink.com 1.10,2013-08-04 14:04:00,
2013-08-04 07:15:00,64.2,60.9,29.97,West,270,1.0,4.0,89,0.00,,---,0.00,VWS V14.01,2013-08-04 14:15:00,
2013-08-04 07:19:00,64.3,61.0,29.97,West,267,0.0,3.0,89,0.00,,,0.00,weatherlink.com 1.10,2013-08-04 14:19:00,
2013-08-04 07:30:00,64.3,61.0,29.97,West,270,0.0,3.0,89,0.00,,---,0.00,VWS V14.01,2013-08-04 14:30:00,
2013-08-04 07:34:00,64.3,61.0,29.97,West,267,0.0,3.0,89,0.00,,,0.00,weatherlink.com 1.10,2013-08-04 14:34:00,
2013-08-04 07:45:00,64.4,61.1,29.97,West,270,1.0,3.0,89,0.00,,---,0.00,VWS V14.01,2013-08-04 14:45:00,
2013-08-04 07:49:00,64.5,61.0,29.98,West,267,0.0,3.0,88,0.00,,,0.00,weatherlink.com 1.10,2013-08-04 14:49:00,
2013-08-04 08:00:00,64.6,61.3,29.98,West,270,0.0,3.0,89,0.00,,---,0.00,VWS V14.01,2013-08-04 15:00:00,
2013-08-04 08:04:00,64.7,62.0,29.98,SW,225,1.0,4.0,89,0.00,,,0.00,weatherlink.com 1.10,2013-08-04 15:04:00,
2013-08-04 08:15:00,64.7,61.4,29.98,South,180,1.0,6.0,89,0.00,,---,0.00,VWS V14.01,2013-08-04 15:15:00,
2013-08-04 08:19:00,64.8,62.0,29.98,South,182,0.0,3.0,89,0.00,,,0.00,weatherlink.com 1.10,2013-08-04 15:19:00,
2013-08-04 08:30:00,64.9,61.3,29.98,South,180,1.0,3.0,88,0.00,,---,0.00,VWS V14.01,2013-08-04 15:30:00,
2013-08-04 08:34:00,65.0,61.0,29.99,South,182,0.0,2.0,88,0.00,,,0.00,weatherlink.com 1.10,2013-08-04 15:34:00,
2013-08-04 08:45:00,65.2,61.6,29.99,South,180,0.0,2.0,88,0.00,,---,0.00,VWS V14.01,2013-08-04 15:45:00,
2013-08-04 08:49:00,65.4,62.0,29.99,South,182,0.0,2.0,87,0.00,,,0.00,weatherlink.com 1.10,2013-08-04 15:49:00,
2013-08-04 09:00:00,65.6,61.3,29.99,South,180,0.0,2.0,86,0.00,,---,0.00,VWS V14.01,2013-08-04 16:00:00,
2013-08-04 09:04:00,65.7,62.0,29.99,South,182,0.0,2.0,86,0.00,,,0.00,weatherlink.com 1.10,2013-08-04 16:04:00,
2013-08-04 09:15:00,66.2,61.9,29.99,South,180,0.0,2.0,86,0.00,,---,0.00,VWS V14.01,2013-08-04 16:15:00,
2013-08-04 09:19:00,66.5,62.0,29.99,South,181,0.0,2.0,85,0.00,,,0.00,weatherlink.com 1.10,2013-08-04 16:19:00,
2013-08-04 09:30:00,66.6,61.6,29.99,South,180,0.0,2.0,84,0.00,,---,0.00,VWS V14.01,2013-08-04 16:30:00,
2013-08-04 09:34:00,66.8,62.0,30.00,South,181,0.0,1.0,84,0.00,,,0.00,weatherlink.com 1.10,2013-08-04 16:34:00,
2013-08-04 09:45:00,67.2,61.9,29.99,South,180,0.0,1.0,83,0.00,,---,0.00,VWS V14.01,2013-08-04 16:45:00,
2013-08-04 09:49:00,67.5,62.0,30.00,South,181,0.0,3.0,83,0.00,,,0.00,weatherlink.com 1.10,2013-08-04 16:49:00,
2013-08-04 10:00:00,67.9,62.5,30.00,South,180,0.0,3.0,83,0.00,,---,0.00,VWS V14.01,2013-08-04 17:00:00,
2013-08-04 10:05:00,68.1,62.0,29.99,SSW,193,0.0,6.0,82,0.00,,,0.00,weatherlink.com 1.10,2013-08-04 17:05:00,
2013-08-04 10:15:00,68.5,62.5,29.99,SSW,202,1.0,6.0,81,0.00,,---,0.00,VWS V14.01,2013-08-04 17:15:00,
2013-08-04 10:19:00,68.8,62.0,29.99,SSW,205,1.0,4.0,80,0.00,,,0.00,weatherlink.com 1.10,2013-08-04 17:19:00,
2013-08-04 10:30:00,69.1,62.7,29.99,SSW,202,1.0,5.0,80,0.00,,---,0.00,VWS V14.01,2013-08-04 17:30:00,
2013-08-04 10:35:00,69.1,63.0,29.99,West,260,0.0,6.0,80,0.00,,,0.00,weatherlink.com 1.10,2013-08-04 17:35:00,
2013-08-04 10:45:00,69.2,62.8,29.99,SSW,202,2.0,7.0,80,0.00,,---,0.00,VWS V14.01,2013-08-04 17:45:00,
2013-08-04 10:49:00,69.1,62.0,29.99,WSW,239,0.0,7.0,79,0.00,,,0.00,weatherlink.com 1.10,2013-08-04 17:49:00,
2013-08-04 11:00:00,69.6,63.2,29.99,WSW,248,1.0,4.0,80,0.00,,---,0.00,VWS V14.01,2013-08-04 18:00:00,
2013-08-04 11:05:00,70.1,63.0,29.98,WSW,245,2.0,5.0,77,0.00,,,0.00,weatherlink.com 1.10,2013-08-04 18:05:00,
2013-08-04 11:15:00,70.4,63.6,29.98,WSW,248,1.0,5.0,79,0.00,,---,0.00,VWS V14.01,2013-08-04 18:15:00,
2013-08-04 11:20:00,71.1,64.0,29.98,South,191,2.0,5.0,77,0.00,,,0.00,weatherlink.com 1.10,2013-08-04 18:20:00,
2013-08-04 11:30:00,71.5,63.5,29.98,South,180,1.0,7.0,76,0.00,,---,0.00,VWS V14.01,2013-08-04 18:30:00,
2013-08-04 11:35:00,72.3,63.0,29.98,SSW,205,5.0,8.0,73,0.00,,,0.00,weatherlink.com 1.10,2013-08-04 18:35:00,
2013-08-04 11:45:00,72.5,63.4,29.97,SSW,202,2.0,8.0,73,0.00,,---,0.00,VWS V14.01,2013-08-04 18:45:00,
2013-08-04 11:50:00,73.1,64.0,29.98,SSW,194,2.0,9.0,73,0.00,,,0.00,weatherlink.com 1.10,2013-08-04 18:50:00,
2013-08-04 12:00:00,73.6,64.0,29.98,SSW,202,3.0,9.0,72,0.00,,---,0.00,VWS V14.01,2013-08-04 19:00:00,
2013-08-04 12:05:00,73.0,63.0,29.98,WSW,251,5.0,11.0,72,0.00,,,0.00,weatherlink.com 1.10,2013-08-04 19:05:00,
2013-08-04 12:15:00,72.5,63.4,29.98,WSW,248,4.0,11.0,73,0.00,,---,0.00,VWS V14.01,2013-08-04 19:15:00,
2013-08-04 12:20:00,72.5,64.0,29.98,WSW,258,3.0,9.0,75,0.00,,,0.00,weatherlink.com 1.10,2013-08-04 19:20:00,
2013-08-04 12:30:00,72.6,63.8,29.98,SSW,202,3.0,9.0,74,0.00,,---,0.00,VWS V14.01,2013-08-04 19:30:00,
2013-08-04 12:35:00,72.7,64.0,29.98,SSW,205,4.0,7.0,75,0.00,,,0.00,weatherlink.com 1.10,2013-08-04 19:35:00,
2013-08-04 12:45:00,72.7,63.9,29.98,SW,225,3.0,8.0,74,0.00,,---,0.00,VWS V14.01,2013-08-04 19:45:00,
2013-08-04 12:50:00,72.6,64.0,29.98,SSE,165,5.0,9.0,74,0.00,,,0.00,weatherlink.com 1.10,2013-08-04 19:50:00,
2013-08-04 13:00:00,72.8,64.0,29.97,SSW,202,4.0,10.0,74,0.00,,---,0.00,VWS V14.01,2013-08-04 20:00:00,
2013-08-04 13:05:00,73.1,64.0,29.97,WSW,246,2.0,10.0,74,0.00,,,0.00,weatherlink.com 1.10,2013-08-04 20:05:00,
2013-08-04 13:15:00,73.5,64.3,29.97,SSW,202,4.0,11.0,73,0.00,,---,0.00,VWS V14.01,2013-08-04 20:15:00,
2013-08-04 13:20:00,73.3,64.0,29.97,SSW,200,2.0,8.0,73,0.00,,,0.00,weatherlink.com 1.10,2013-08-04 20:20:00,
2013-08-04 13:30:00,73.6,64.4,29.97,SSW,202,4.0,9.0,73,0.00,,---,0.00,VWS V14.01,2013-08-04 20:30:00,
2013-08-04 13:35:00,73.6,64.0,29.97,SSW,207,1.0,9.0,73,0.00,,,0.00,weatherlink.com 1.10,2013-08-04 20:35:00,
2013-08-04 13:45:00,73.9,64.3,29.97,SSW,202,4.0,13.0,72,0.00,,---,0.00,VWS V14.01,2013-08-04 20:45:00,
2013-08-04 13:50:00,74.0,64.0,29.96,SSW,192,7.0,13.0,71,0.00,,,0.00,weatherlink.com 1.10,2013-08-04 20:50:00,
2013-08-04 14:00:00,73.7,63.7,29.96,SSW,202,5.0,13.0,71,0.00,,---,0.00,VWS V14.01,2013-08-04 21:00:00,
2013-08-04 14:05:00,73.3,64.0,29.96,SSW,205,3.0,11.0,73,0.00,,,0.00,weatherlink.com 1.10,2013-08-04 21:05:00,
2013-08-04 14:15:00,73.1,63.5,29.96,SSW,202,5.0,11.0,72,0.00,,---,0.00,VWS V14.01,2013-08-04 21:15:00,
2013-08-04 14:20:00,73.3,64.0,29.96,WSW,254,11.0,11.0,72,0.00,,,0.00,weatherlink.com 1.10,2013-08-04 21:20:00,
2013-08-04 14:30:00,73.7,64.5,29.96,SSW,202,5.0,11.0,73,0.00,,---,0.00,VWS V14.01,2013-08-04 21:30:00,
2013-08-04 14:35:00,73.5,64.0,29.95,West,261,5.0,10.0,71,0.00,,,0.00,weatherlink.com 1.10,2013-08-04 21:35:00,
2013-08-04 14:45:00,73.5,63.9,29.95,SSW,202,4.0,11.0,72,0.00,,---,0.00,VWS V14.01,2013-08-04 21:45:00,
2013-08-04 14:50:00,73.4,63.0,29.95,WSW,242,4.0,10.0,71,0.00,,,0.00,weatherlink.com 1.10,2013-08-04 21:50:00,
2013-08-04 15:00:00,73.9,64.3,29.95,SSW,202,4.0,14.0,72,0.00,,---,0.00,VWS V14.01,2013-08-04 22:00:00,
2013-08-04 15:05:00,73.8,64.0,29.95,West,270,5.0,12.0,71,0.00,,,0.00,weatherlink.com 1.10,2013-08-04 22:05:00,
2013-08-04 15:15:00,73.7,63.3,29.95,SSW,202,5.0,13.0,70,0.00,,---,0.00,VWS V14.01,2013-08-04 22:15:00,
2013-08-04 15:20:00,73.3,63.0,29.95,South,189,8.0,12.0,71,0.00,,,0.00,weatherlink.com 1.10,2013-08-04 22:20:00,
2013-08-04 15:30:00,73.1,63.5,29.95,SSW,202,5.0,12.0,72,0.00,,---,0.00,VWS V14.01,2013-08-04 22:30:00,
2013-08-04 15:35:00,73.3,63.0,29.94,SSW,200,10.0,12.0,71,0.00,,,0.00,weatherlink.com 1.10,2013-08-04 22:35:00,
2013-08-04 15:45:00,73.4,63.0,29.94,SSW,202,6.0,13.0,70,0.00,,---,0.00,VWS V14.01,2013-08-04 22:45:00,
2013-08-04 15:50:00,73.4,63.0,29.94,SSW,198,3.0,13.0,70,0.00,,,0.00,weatherlink.com 1.10,2013-08-04 22:50:00,
2013-08-04 16:00:00,74.2,63.4,29.93,SSW,202,4.0,11.0,69,0.00,,---,0.00,VWS V14.01,2013-08-04 23:00:00,
2013-08-04 16:05:00,74.9,64.0,29.93,SW,225,11.0,11.0,68,0.00,,,0.00,weatherlink.com 1.10,2013-08-04 23:05:00,
2013-08-04 16:15:00,74.9,63.2,29.93,SSW,202,4.0,11.0,67,0.00,,---,0.00,VWS V14.01,2013-08-04 23:15:00,
2013-08-04 16:20:00,75.1,63.0,29.93,South,184,5.0,10.0,67,0.00,,,0.00,weatherlink.com 1.10,2013-08-04 23:20:00,
2013-08-04 16:30:00,75.0,63.3,29.92,SSW,202,4.0,10.0,67,0.00,,---,0.00,VWS V14.01,2013-08-04 23:30:00,
2013-08-04 16:35:00,75.3,64.0,29.92,WSW,253,4.0,11.0,67,0.00,,,0.00,weatherlink.com 1.10,2013-08-04 23:35:00,
2013-08-04 16:45:00,75.8,63.6,29.92,SSW,202,4.0,11.0,66,0.00,,---,0.00,VWS V14.01,2013-08-04 23:45:00,
2013-08-04 16:50:00,76.2,64.0,29.91,SSW,204,2.0,9.0,65,0.00,,,0.00,weatherlink.com 1.10,2013-08-04 23:50:00,
2013-08-04 17:00:00,75.9,63.7,29.91,SSW,202,4.0,10.0,66,0.00,,---,0.00,VWS V14.01,2013-08-05 00:00:00,
2013-08-04 17:05:00,76.1,64.0,29.91,South,190,5.0,10.0,66,0.00,,,0.00,weatherlink.com 1.10,2013-08-05 00:05:00,
2013-08-04 17:15:00,76.2,63.6,29.91,SSW,202,4.0,9.0,65,0.00,,---,0.00,VWS V14.01,2013-08-05 00:15:00,
2013-08-04 17:20:00,76.1,64.0,29.91,South,191,0.0,10.0,66,0.00,,,0.00,weatherlink.com 1.10,2013-08-05 00:20:00,
2013-08-04 17:30:00,76.5,63.9,29.91,SSW,202,3.0,10.0,65,0.00,,---,0.00,VWS V14.01,2013-08-05 00:30:00,
2013-08-04 17:35:00,76.2,64.0,29.91,WSW,252,4.0,10.0,66,0.00,,,0.00,weatherlink.com 1.10,2013-08-05 00:35:00,
2013-08-04 17:45:00,75.9,63.7,29.90,SSW,202,4.0,10.0,66,0.00,,---,0.00,VWS V14.01,2013-08-05 00:45:00,
2013-08-04 17:50:00,75.1,64.0,29.90,SSW,209,6.0,12.0,68,0.00,,,0.00,weatherlink.com 1.10,2013-08-05 00:50:00,
2013-08-04 18:00:00,74.6,63.3,29.90,SSW,202,4.0,12.0,68,0.00,,---,0.00,VWS V14.01,2013-08-05 01:00:00,
2013-08-04 18:05:00,74.5,64.0,29.90,SSW,196,2.0,8.0,69,0.00,,,0.00,weatherlink.com 1.10,2013-08-05 01:05:00,
2013-08-04 18:15:00,74.3,63.9,29.90,SSW,202,4.0,9.0,70,0.00,,---,0.00,VWS V14.01,2013-08-05 01:15:00,
2013-08-04 18:20:00,73.8,63.0,29.90,South,184,6.0,9.0,70,0.00,,,0.00,weatherlink.com 1.10,2013-08-05 01:20:00,
2013-08-04 18:30:00,73.5,63.5,29.90,SSW,202,4.0,9.0,71,0.00,,---,0.00,VWS V14.01,2013-08-05 01:30:00,
2013-08-04 18:35:00,73.1,63.0,29.90,SSW,212,3.0,10.0,71,0.00,,,0.00,weatherlink.com 1.10,2013-08-05 01:35:00,
2013-08-04 18:45:00,72.6,63.1,29.90,SSW,202,5.0,10.0,72,0.00,,---,0.00,VWS V14.01,2013-08-05 01:45:00,
2013-08-04 18:50:00,72.4,63.0,29.90,SSW,196,5.0,8.0,72,0.00,,,0.00,weatherlink.com 1.10,2013-08-05 01:50:00,
2013-08-04 19:00:00,71.8,62.7,29.91,SSW,202,4.0,9.0,73,0.00,,---,0.00,VWS V14.01,2013-08-05 02:00:00,
2013-08-04 19:05:00,71.0,63.0,29.91,South,188,4.0,12.0,75,0.00,,,0.00,weatherlink.com 1.10,2013-08-05 02:05:00,
2013-08-04 19:15:00,70.0,62.1,29.91,SSW,202,3.0,12.0,76,0.00,,---,0.00,VWS V14.01,2013-08-05 02:15:00,
2013-08-04 19:20:00,69.0,62.0,29.91,SW,225,1.0,7.0,78,0.00,,,0.00,weatherlink.com 1.10,2013-08-05 02:20:00,
2013-08-04 19:30:00,68.3,61.5,29.91,SW,225,2.0,7.0,79,0.00,,---,0.00,VWS V14.01,2013-08-05 02:30:00,
2013-08-04 19:35:00,67.5,61.0,29.91,SSW,210,0.0,7.0,80,0.00,,,0.00,weatherlink.com 1.10,2013-08-05 02:35:00,
2013-08-04 19:45:00,67.0,61.0,29.92,SSW,202,2.0,7.0,81,0.00,,---,0.00,VWS V14.01,2013-08-05 02:45:00,
2013-08-04 19:50:00,66.5,61.0,29.92,SSW,209,0.0,4.0,82,0.00,,,0.00,weatherlink.com 1.10,2013-08-05 02:50:00,
2013-08-04 20:00:00,66.1,60.8,29.92,SSW,202,1.0,4.0,83,0.00,,---,0.00,VWS V14.01,2013-08-05 03:00:00,
2013-08-04 20:05:00,65.8,61.0,29.92,SSW,206,0.0,2.0,83,0.00,,,0.00,weatherlink.com 1.10,2013-08-05 03:05:00,
2013-08-04 20:15:00,65.5,60.5,29.92,SSW,202,0.0,2.0,84,0.00,,---,0.00,VWS V14.01,2013-08-05 03:15:00,
2013-08-04 20:20:00,65.2,60.0,29.92,SSW,206,0.0,2.0,84,0.00,,,0.00,weatherlink.com 1.10,2013-08-05 03:20:00,
2013-08-04 20:30:00,64.9,60.3,29.93,SSW,202,0.0,2.0,85,0.00,,---,0.00,VWS V14.01,2013-08-05 03:30:00,
2013-08-04 20:35:00,64.7,60.0,29.93,West,280,1.0,3.0,85,0.00,,,0.00,weatherlink.com 1.10,2013-08-05 03:35:00,
2013-08-04 20:45:00,64.8,60.2,29.93,WSW,248,0.0,3.0,85,0.00,,---,0.00,VWS V14.01,2013-08-05 03:45:00,
2013-08-04 20:50:00,65.1,60.0,29.93,West,265,0.0,3.0,84,0.00,,,0.00,weatherlink.com 1.10,2013-08-05 03:50:00,
2013-08-04 21:00:00,65.1,60.2,29.94,West,270,1.0,3.0,84,0.00,,---,0.00,VWS V14.01,2013-08-05 04:00:00,
2013-08-04 21:05:00,65.0,60.0,29.94,WNW,290,0.0,2.0,84,0.00,,,0.00,weatherlink.com 1.10,2013-08-05 04:05:00,
2013-08-04 21:15:00,64.8,59.9,29.94,West,270,0.0,3.0,84,0.00,,---,0.00,VWS V14.01,2013-08-05 04:15:00,
2013-08-04 21:20:00,64.6,60.0,29.94,NNW,336,0.0,2.0,85,0.00,,,0.00,weatherlink.com 1.10,2013-08-05 04:20:00,
2013-08-04 21:30:00,64.4,59.8,29.94,NNW,338,0.0,2.0,85,0.00,,---,0.00,VWS V14.01,2013-08-05 04:30:00,
2013-08-04 21:35:00,64.1,60.0,29.95,West,275,2.0,5.0,86,0.00,,,0.00,weatherlink.com 1.10,2013-08-05 04:35:00,
2013-08-04 21:45:00,63.9,59.6,29.95,West,270,0.0,5.0,86,0.00,,---,0.00,VWS V14.01,2013-08-05 04:45:00,
2013-08-04 21:50:00,63.7,60.0,29.95,NW,318,0.0,3.0,87,0.00,,,0.00,weatherlink.com 1.10,2013-08-05 04:50:00,
2013-08-04 22:00:00,63.5,59.6,29.95,NW,315,0.0,3.0,87,0.00,,---,0.00,VWS V14.01,2013-08-05 05:00:00,
2013-08-04 22:05:00,63.2,60.0,29.95,NW,318,0.0,1.0,88,0.00,,,0.00,weatherlink.com 1.10,2013-08-05 05:05:00,
2013-08-04 22:20:00,62.8,59.0,29.95,NW,318,0.0,1.0,88,0.00,,,0.00,weatherlink.com 1.10,2013-08-05 05:20:00,
2013-08-04 22:30:00,62.6,59.3,29.95,NW,315,0.0,2.0,89,0.00,,---,0.00,VWS V14.01,2013-08-05 05:30:00,
2013-08-04 22:35:00,62.5,60.0,29.95,NW,320,0.0,3.0,90,0.00,,,0.00,weatherlink.com 1.10,2013-08-05 05:35:00,
2013-08-04 22:45:00,62.3,59.3,29.96,NW,315,0.0,3.0,90,0.00,,---,0.00,VWS V14.01,2013-08-05 05:45:00,
2013-08-04 22:50:00,62.2,59.0,29.96,NW,320,0.0,1.0,90,0.00,,,0.00,weatherlink.com 1.10,2013-08-05 05:50:00,
2013-08-04 23:00:00,62.0,59.3,29.95,NW,315,0.0,2.0,91,0.00,,---,0.00,VWS V14.01,2013-08-05 06:00:00,
2013-08-04 23:05:00,61.9,59.0,29.95,NW,320,0.0,2.0,91,0.00,,,0.00,weatherlink.com 1.10,2013-08-05 06:05:00,
2013-08-04 23:15:00,61.8,59.2,29.95,NW,315,0.0,2.0,91,0.00,,---,0.00,VWS V14.01,2013-08-05 06:15:00,
2013-08-04 23:20:00,61.7,59.0,29.95,NW,320,0.0,0.0,91,0.00,,,0.00,weatherlink.com 1.10,2013-08-05 06:20:00,
2013-08-04 23:30:00,61.4,58.8,29.96,NW,315,0.0,0.0,91,0.00,,---,0.00,VWS V14.01,2013-08-05 06:30:00,
2013-08-04 23:35:00,61.2,59.0,29.96,NW,320,0.0,0.0,91,0.00,,,0.00,weatherlink.com 1.10,2013-08-05 06:35:00,
2013-08-04 23:45:00,60.9,58.6,29.95,NW,315,0.0,0.0,92,0.00,,---,0.00,VWS V14.01,2013-08-05 06:45:00,
2013-08-04 23:51:00,60.8,59.0,29.95,NW,320,0.0,0.0,92,0.00,,,0.00,weatherlink.com 1.10,2013-08-05 06:51:00,